Date,TemperatureHighF,TemperatureAvgF,TemperatureLowF,DewpointHighF,DewpointAvgF,DewpointLowF,HumidityHigh,HumidityAvg,HumidityLow,PressureMaxIn,PressureMinIn,WindSpeedMaxMPH,WindSpeedAvgMPH,GustSpeedMaxMPH,PrecipitationSumIn
2013-1-1,36.8,32.8,30.9,26.1,24.5,22.5,80,71,63,30.48,30.37,11,7,28,0.00
2013-1-2,37.2,33.7,32.1,25.8,24.1,22.8,71,67,61,30.38,30.24,12,10,29,0.00
2013-1-3,36.2,33.6,31.8,31.7,24.3,22.1,91,69,58,30.30,30.18,12,8,34,0.00
2013-1-4,42.3,36.0,33.0,36.9,31.8,26.3,97,85,71,30.38,30.21,10,3,19,0.01
2013-1-5,36.3,34.3,32.9,31.2,28.9,26.1,85,80,75,30.27,30.19,11,5,24,0.01
2013-1-6,42.7,36.9,33.2,41.0,35.2,30.8,97,94,83,30.28,30.10,1,0,5,0.29
2013-1-7,51.6,47.6,39.9,48.9,45.5,39.1,98,92,89,30.23,30.00,9,3,15,0.13
2013-1-8,54.4,50.6,44.7,49.5,47.1,43.3,98,88,81,30.22,29.92,9,3,19,0.13
2013-1-9,51.6,43.0,35.0,46.8,40.0,33.7,96,89,73,30.00,29.72,8,2,21,0.36
2013-1-10,37.7,35.5,33.0,36.3,34.3,32.0,98,95,92,30.13,30.00,2,0,6,0.29
2013-1-11,38.5,31.9,26.5,33.6,30.2,25.8,98,94,68,30.33,30.12,1,0,4,0.02
2013-1-12,37.1,28.9,24.2,31.7,27.2,23.5,98,93,79,30.43,30.33,2,0,5,0.00
2013-1-13,36.2,28.6,24.4,28.6,25.7,22.7,97,89,70,30.53,30.43,2,0,5,0.00
2013-1-14,32.2,30.0,27.3,31.7,28.2,25.5,98,93,88,30.59,30.51,1,0,4,0.00
2013-1-15,37.2,34.4,32.2,36.1,33.5,31.7,98,96,94,30.69,30.60,0,0,1,0.01
2013-1-16,36.3,34.4,32.5,34.4,33.0,30.8,96,95,91,30.68,30.51,1,0,3,0.00
2013-1-17,42.4,34.4,27.5,32.6,29.3,26.8,98,83,65,30.52,30.34,5,1,9,0.00
2013-1-18,47.1,32.5,24.2,35.8,28.5,23.2,97,86,61,30.35,30.28,2,0,9,0.00
2013-1-19,44.5,31.0,21.9,34.0,27.2,20.9,98,87,64,30.37,30.29,6,1,11,0.01
2013-1-20,41.8,33.1,26.3,29.4,26.4,24.6,94,77,56,30.39,30.26,8,3,17,0.00
2013-1-21,43.0,34.4,25.3,26.5,25.0,22.2,89,69,50,30.31,30.18,9,3,17,0.00
2013-1-22,38.3,33.2,30.4,25.3,24.1,23.1,76,69,58,30.19,29.97,10,6,24,0.00
2013-1-23,34.6,32.9,31.3,32.8,27.6,23.1,97,81,65,30.24,29.93,9,3,18,0.25
2013-1-24,45.2,38.5,33.0,40.5,36.8,32.5,98,94,76,30.26,30.12,3,0,7,0.40
2013-1-25,51.4,41.2,37.7,49.7,40.6,37.2,99,98,92,30.16,29.98,2,0,4,0.23
2013-1-26,44.7,41.2,38.2,41.2,39.3,36.6,99,93,84,30.11,29.96,4,1,8,0.09
2013-1-27,42.2,39.9,38.2,39.4,38.2,36.9,97,94,88,30.17,30.07,5,2,13,0.31
2013-1-28,42.6,40.9,39.2,42.1,40.1,38.1,98,97,95,30.23,30.10,4,2,10,1.16
2013-1-29,45.8,44.1,41.8,44.9,43.1,41.3,98,96,92,30.49,30.22,5,2,12,0.71
2013-1-30,48.1,45.3,42.7,46.6,44.1,41.6,98,95,92,30.48,30.43,5,3,11,0.44
2013-1-31,52.8,47.4,43.8,48.4,45.4,43.5,99,93,76,30.47,30.35,2,0,7,0.01
2013-2-1,54.9,46.8,42.1,47.8,43.7,38.1,99,90,66,30.39,30.28,6,1,17,0.00
2013-2-2,57.2,47.8,34.8,43.2,38.7,33.8,97,72,53,30.32,30.27,10,4,27,0.00
2013-2-3,47.5,41.4,32.6,43.7,39.8,31.8,98,94,85,30.36,30.25,1,0,2,0.00
2013-2-4,53.1,45.2,38.9,44.1,41.6,38.2,98,88,67,30.26,29.96,1,0,4,0.00
2013-2-5,52.9,46.3,42.8,45.7,42.6,40.6,95,87,72,30.06,29.94,7,2,17,0.10
2013-2-6,51.2,46.2,42.3,43.2,41.0,39.3,92,83,66,30.12,29.87,7,1,15,0.12
2013-2-7,49.9,41.9,33.4,40.1,37.3,32.6,97,85,58,30.16,29.94,5,1,17,0.04
2013-2-8,44.4,35.8,30.4,37.3,33.4,29.6,98,91,74,30.31,30.16,1,0,4,0.00
2013-2-9,42.5,37.7,29.8,40.9,36.4,29.1,98,95,90,30.32,30.28,2,0,5,0.00
2013-2-10,47.4,42.5,40.1,40.7,38.7,36.8,97,87,71,30.37,30.32,1,0,6,0.00
2013-2-11,44.6,42.4,40.6,42.3,39.1,36.2,95,88,77,30.41,30.33,3,1,7,0.02
2013-2-12,55.7,48.4,44.0,47.5,44.8,42.1,95,88,71,30.49,30.40,4,2,12,0.02
2013-2-13,49.9,47.4,43.4,46.3,44.0,40.2,95,88,82,30.53,30.43,4,1,10,0.01
2013-2-14,54.0,44.7,36.3,45.6,41.1,35.5,98,88,69,30.59,30.52,1,0,5,0.00
2013-2-15,60.9,46.3,34.1,45.8,40.4,33.6,99,82,53,30.52,30.21,5,1,13,0.00
2013-2-16,50.3,42.3,34.7,46.9,40.3,33.7,98,93,79,30.30,30.22,3,0,9,0.10
2013-2-17,45.5,40.0,33.3,39.1,36.1,32.0,97,86,61,30.32,30.12,2,0,5,0.00
2013-2-18,47.0,39.4,31.4,37.8,34.5,30.5,97,83,59,30.12,29.76,3,0,7,0.00
2013-2-19,56.5,43.0,34.0,42.8,36.8,32.5,97,80,47,30.02,29.72,3,0,7,0.11
2013-2-20,47.2,39.7,29.6,40.8,36.6,28.6,97,89,71,30.11,30.02,4,1,8,0.06
2013-2-21,44.2,41.6,38.6,40.2,38.5,36.2,94,89,82,30.21,30.10,7,3,18,0.05
2013-2-22,45.5,43.1,37.0,43.5,40.0,34.9,95,89,81,30.19,29.89,9,4,23,0.43
2013-2-23,47.2,40.4,35.5,41.1,36.3,33.9,95,86,68,30.46,30.08,6,2,12,0.06
2013-2-24,51.1,42.5,34.6,38.6,35.3,33.0,96,77,51,30.45,30.07,6,1,11,0.00
2013-2-25,48.4,42.2,36.6,43.0,38.1,34.3,95,86,65,30.40,30.03,8,2,20,0.34
2013-2-26,49.4,42.0,34.7,39.2,36.2,33.4,97,81,58,30.41,30.26,2,0,9,0.00
2013-2-27,53.0,46.8,41.6,44.9,41.1,37.4,96,81,59,30.33,30.25,3,0,7,0.06
2013-2-28,55.5,51.6,44.9,52.5,49.3,44.1,99,92,87,30.45,30.22,6,3,14,0.13
2013-3-1,60.9,55.6,52.7,51.8,50.7,49.9,93,84,70,30.47,30.32,5,2,10,0.00
2013-3-2,55.5,49.7,40.9,50.6,46.6,39.4,97,89,74,30.33,30.17,4,1,10,0.10
2013-3-3,50.8,39.9,31.6,39.7,35.0,30.5,98,84,52,30.34,30.27,3,0,7,0.01
2013-3-4,54.9,43.2,27.7,30.8,28.0,24.9,98,59,36,30.28,29.93,7,3,17,0.01
2013-3-5,45.2,41.9,40.1,39.6,33.8,25.5,93,74,49,29.93,29.66,5,2,12,0.32
2013-3-6,44.2,41.8,39.9,41.7,39.1,36.5,95,90,82,29.99,29.56,7,2,15,0.39
2013-3-7,57.6,43.0,30.5,40.5,35.5,29.8,98,77,41,30.08,29.99,2,0,5,0.00
2013-3-8,61.3,42.6,26.8,40.9,33.9,25.7,98,75,38,30.23,30.05,2,0,5,0.01
2013-3-9,61.3,42.8,28.1,41.6,34.4,27.1,97,76,34,30.51,30.23,2,0,5,0.00
2013-3-10,49.5,42.3,32.5,43.6,38.4,31.0,95,86,74,30.52,30.44,1,0,4,0.01
2013-3-11,53.9,48.6,44.0,50.1,46.2,42.4,95,91,82,30.45,30.25,1,0,3,0.03
2013-3-12,60.6,53.1,46.4,50.5,48.3,44.6,98,85,62,30.25,30.17,4,1,12,0.00
2013-3-13,65.9,53.9,45.2,49.8,47.0,43.4,95,79,53,30.25,30.10,3,0,6,0.00
2013-3-14,60.5,53.0,45.6,49.3,46.1,40.3,96,79,49,30.22,30.06,6,1,14,0.00
2013-3-15,65.9,56.6,49.2,51.1,47.9,43.3,90,74,45,30.25,30.16,5,1,12,0.00
2013-3-16,50.1,46.4,38.1,46.4,43.3,36.7,96,89,80,30.19,30.02,6,1,15,0.26
2013-3-17,50.5,42.5,37.1,39.2,35.9,32.3,95,78,52,30.32,30.15,5,1,12,0.01
2013-3-18,55.6,43.6,36.7,38.7,36.1,34.2,91,76,49,30.31,30.18,4,1,13,0.00
2013-3-19,51.9,44.1,36.5,43.8,36.2,30.5,96,75,52,30.18,29.70,8,3,18,0.48
2013-3-20,53.3,48.1,39.3,50.2,43.2,33.6,98,83,60,30.17,29.54,8,3,27,0.41
2013-3-21,48.8,41.5,37.8,39.9,35.3,32.1,91,79,54,30.32,30.17,5,2,14,0.06
2013-3-22,48.6,38.8,33.2,37.5,34.3,30.0,96,85,52,30.42,30.31,3,0,8,0.07
2013-3-23,52.5,39.0,31.7,38.1,32.1,24.8,98,79,34,30.42,30.29,2,0,6,0.00
2013-3-24,53.5,44.9,33.9,34.3,31.7,29.4,92,62,43,30.29,30.11,6,3,15,0.00
2013-3-25,60.5,51.9,44.2,37.2,31.4,26.8,61,46,34,30.11,29.92,6,3,12,0.00
2013-3-26,53.9,46.9,37.6,45.9,41.4,34.4,91,82,61,30.05,29.98,2,0,5,0.00
2013-3-27,65.1,51.6,37.5,50.5,43.7,36.5,97,78,46,30.01,29.91,3,0,8,0.14
2013-3-28,66.1,54.0,44.6,51.3,47.0,43.7,98,80,45,30.14,30.01,3,0,7,0.00
2013-3-29,71.8,57.0,48.4,52.6,48.2,45.4,93,74,43,30.22,30.14,3,0,6,0.00
2013-3-30,77.8,58.4,39.9,52.3,46.2,39.1,97,68,36,30.20,29.98,4,1,11,0.00
2013-3-31,78.3,62.3,45.1,52.9,46.7,41.2,87,59,32,30.01,29.89,4,1,8,0.00
2013-4-1,66.3,58.2,53.2,52.3,49.9,48.5,85,74,57,30.18,30.00,4,1,9,0.00
2013-4-2,65.9,55.8,49.3,50.5,48.2,46.2,89,77,54,30.22,30.13,3,1,6,0.00
2013-4-3,65.2,53.7,42.0,52.0,47.6,40.9,97,82,57,30.19,29.92,2,0,6,0.00
2013-4-4,60.1,55.6,52.4,56.2,51.6,48.6,96,87,73,29.92,29.71,6,1,13,0.18
2013-4-5,59.1,53.9,50.1,51.1,49.1,47.5,93,84,68,29.96,29.83,7,3,17,0.22
2013-4-6,55.8,49.6,43.7,49.2,46.0,41.1,96,88,60,30.02,29.74,5,2,13,0.95
2013-4-7,52.8,47.6,41.5,48.3,43.1,39.1,96,85,64,29.98,29.57,10,3,24,0.30
2013-4-8,53.5,46.5,41.0,46.8,42.2,38.8,94,85,65,30.31,29.98,3,0,6,0.05
2013-4-9,58.3,48.5,37.4,47.2,42.3,36.6,98,81,55,30.39,30.26,1,0,4,0.00
2013-4-10,61.4,53.0,43.9,54.4,45.8,37.9,96,77,57,30.35,30.12,8,1,19,0.32
2013-4-11,56.8,46.6,35.5,44.2,39.7,34.5,97,78,58,30.37,30.20,2,0,5,0.00
2013-4-12,54.2,43.5,33.3,46.2,38.5,32.1,96,84,59,30.20,29.87,3,0,9,0.15
2013-4-13,52.7,45.0,37.0,41.6,36.9,31.7,96,75,51,30.10,29.93,7,2,17,0.15
2013-4-14,52.6,42.8,39.7,43.3,39.4,36.2,97,88,63,30.10,29.95,3,1,7,0.38
2013-4-15,56.8,46.5,36.2,42.4,38.7,34.1,98,77,44,30.19,29.97,4,1,9,0.00
2013-4-16,61.0,46.8,35.9,42.8,38.9,34.9,97,76,40,30.42,30.19,5,1,10,0.00
2013-4-17,61.1,47.3,32.1,45.5,38.1,31.1,97,73,39,30.52,30.41,2,0,6,0.01
2013-4-18,60.2,51.5,44.1,48.5,42.6,39.1,94,73,52,30.50,30.33,2,0,6,0.04
2013-4-19,56.9,52.1,48.9,52.6,48.6,45.6,95,88,76,30.33,30.16,6,2,14,0.37
2013-4-20,59.8,52.5,47.5,46.8,44.1,40.6,93,74,53,30.36,30.27,3,1,8,0.00
2013-4-21,53.2,48.8,42.0,48.6,44.0,40.4,96,84,72,30.33,30.26,2,0,8,0.03
2013-4-22,66.2,50.7,34.7,44.3,35.2,26.1,98,63,23,30.45,30.33,5,1,14,0.01
2013-4-23,72.0,52.8,34.9,41.2,34.6,26.6,91,56,20,30.40,30.16,2,0,6,0.00
2013-4-24,78.3,57.8,36.5,43.1,36.3,32.8,91,50,21,30.28,30.02,5,1,10,0.00
2013-4-25,79.4,59.5,39.7,48.1,41.7,36.5,90,56,27,30.16,30.03,3,0,9,0.00
2013-4-26,81.2,60.7,42.0,51.5,44.4,31.6,95,61,17,30.26,30.16,2,0,7,0.00
2013-4-27,76.2,58.4,42.1,47.5,43.1,37.6,89,61,28,30.27,30.19,4,0,6,0.00
2013-4-28,69.8,58.3,50.5,50.1,45.1,34.7,94,65,30,30.27,30.09,5,1,9,0.02
2013-4-29,61.7,52.4,40.8,48.8,39.9,29.9,94,65,35,30.24,30.06,7,1,17,0.14
2013-4-30,58.6,47.4,38.9,43.2,34.8,31.0,83,63,39,30.46,30.24,3,0,6,0.00
2013-5-1,73.6,53.2,32.2,41.9,35.6,30.0,93,56,26,30.54,30.45,3,1,8,0.00
2013-5-2,83.7,70.2,51.4,43.4,37.9,32.6,59,32,20,30.47,30.24,5,1,10,0.00
2013-5-3,83.5,63.8,43.1,49.5,41.3,34.8,80,46,25,30.31,30.13,4,0,8,0.00
2013-5-4,83.2,67.0,44.2,48.6,39.5,32.3,88,44,17,30.14,29.91,8,2,16,0.00
2013-5-5,85.4,68.6,46.8,46.8,40.6,35.4,79,41,19,29.91,29.70,7,2,18,0.00
2013-5-6,85.9,67.3,51.1,54.6,49.1,45.3,82,55,26,29.88,29.74,3,1,7,0.00
2013-5-7,79.3,64.0,49.7,55.4,50.2,46.0,88,63,36,30.03,29.88,3,1,9,0.00
2013-5-8,67.8,58.3,50.4,54.3,50.6,47.6,90,76,57,30.16,30.03,3,0,6,0.00
2013-5-9,79.8,62.4,48.6,56.5,51.6,46.7,95,71,35,30.21,30.07,2,0,6,0.00
2013-5-10,87.5,69.0,49.5,57.7,53.3,45.8,94,61,24,30.21,30.09,2,0,7,0.00
2013-5-11,87.3,71.6,57.1,58.6,54.6,49.8,80,58,32,30.19,29.99,3,0,7,0.00
2013-5-12,70.7,63.5,57.4,61.5,57.6,55.8,95,82,64,30.13,30.06,3,0,5,0.16
2013-5-13,69.7,59.8,49.3,57.4,51.6,42.5,96,76,47,30.24,30.05,7,2,16,0.04
2013-5-14,68.9,55.9,42.1,45.9,41.3,35.4,94,62,30,30.25,30.11,3,0,6,0.00
2013-5-15,59.3,53.0,47.5,51.6,47.5,42.8,91,82,68,30.13,30.04,2,0,6,0.03
2013-5-16,69.4,57.1,52.6,57.0,52.7,49.8,95,86,57,30.04,29.93,3,0,6,0.17
2013-5-17,64.1,55.5,49.4,51.6,48.6,44.7,96,79,50,30.11,30.00,3,1,8,0.10
2013-5-18,57.9,52.8,49.3,52.7,50.1,47.6,98,91,70,30.29,30.11,2,0,6,0.21
2013-5-19,63.9,56.3,50.4,52.7,49.3,45.1,99,79,52,30.42,30.29,2,0,6,0.00
2013-5-20,72.3,58.2,43.8,52.2,47.0,42.1,95,69,42,30.36,29.91,3,0,7,0.00
2013-5-21,58.8,49.5,43.4,49.0,45.3,40.7,95,86,63,30.00,29.83,4,1,13,0.51
2013-5-22,47.7,44.7,41.8,45.7,42.3,39.2,95,91,88,30.00,29.95,4,2,14,0.86
2013-5-23,55.8,48.5,44.8,49.1,45.5,43.2,95,90,70,30.04,29.98,4,1,10,0.86
2013-5-24,60.2,51.7,46.8,51.0,47.3,44.8,96,85,63,30.10,29.99,5,1,16,0.34
2013-5-25,69.4,57.4,48.9,50.4,47.5,42.2,97,73,40,30.09,29.94,3,1,9,0.00
2013-5-26,65.9,58.4,53.2,53.6,50.7,47.5,96,77,57,30.05,29.94,4,1,9,0.08
2013-5-27,64.9,55.3,50.5,58.9,52.5,47.0,97,90,73,30.01,29.75,5,1,9,0.90
2013-5-28,65.4,56.9,51.1,53.0,49.2,44.7,97,77,51,29.95,29.78,5,1,12,0.07
2013-5-29,65.4,55.9,50.3,53.0,50.0,46.0,97,82,54,30.07,29.66,7,2,19,0.36
2013-5-30,65.0,55.1,48.4,51.3,47.6,44.2,92,77,51,30.27,30.07,4,1,11,0.02
2013-5-31,71.7,59.2,48.4,51.2,47.7,42.8,95,69,38,30.35,30.23,3,0,7,0.00
2013-6-1,77.1,61.4,46.5,55.4,50.3,44.6,95,70,40,30.26,30.02,3,0,9,0.01
2013-6-2,77.0,63.3,54.3,54.2,51.0,48.7,86,66,40,30.10,30.03,3,0,10,0.00
2013-6-3,77.2,61.1,50.4,54.5,49.8,46.8,88,69,40,30.14,30.03,3,0,10,0.00
2013-6-4,87.4,67.6,46.7,59.0,51.8,44.3,93,61,31,30.10,29.96,2,0,8,0.00
2013-6-5,87.4,70.8,54.0,60.6,54.7,49.3,89,60,28,30.08,29.97,2,0,11,0.00
2013-6-6,86.6,69.4,53.8,61.2,53.6,44.5,89,60,33,30.06,29.98,3,0,9,0.00
2013-6-7,80.8,65.1,50.5,57.8,47.9,39.0,84,57,26,30.16,30.06,2,0,9,0.00
2013-6-8,80.6,64.2,48.1,53.6,48.2,41.4,91,60,28,30.19,30.06,3,0,11,0.00
2013-6-9,75.4,61.0,50.5,52.1,47.9,44.0,85,64,36,30.13,29.99,4,0,8,0.00
2013-6-10,73.5,57.8,44.6,51.4,45.4,41.6,91,65,38,30.05,29.90,3,0,8,0.00
2013-6-11,66.0,57.7,52.6,52.8,46.4,42.9,82,67,46,30.15,30.00,4,1,9,0.03
2013-6-12,65.8,56.4,52.2,53.2,48.9,45.8,92,77,55,30.19,30.14,2,0,9,0.04
2013-6-13,64.1,55.6,49.9,57.1,51.1,48.2,95,85,65,30.30,30.18,5,1,9,0.48
2013-6-14,70.5,60.2,52.0,52.1,50.1,47.6,89,71,49,30.30,30.00,3,0,8,0.00
2013-6-15,81.6,61.9,46.3,56.3,50.8,44.9,96,71,35,30.01,29.90,3,0,8,0.00
2013-6-16,74.5,63.5,51.8,57.3,53.6,49.3,92,72,53,30.11,30.01,3,0,8,0.00
2013-6-17,80.1,66.9,54.6,55.3,51.6,48.8,86,60,36,30.11,29.93,4,1,14,0.00
2013-6-18,73.5,63.1,55.9,52.9,49.6,43.8,86,63,39,30.02,29.93,4,1,14,0.02
2013-6-19,67.1,58.7,51.9,56.4,50.0,47.5,88,74,52,30.10,29.96,3,1,10,0.03
2013-6-20,68.3,59.1,52.1,57.9,51.6,48.9,93,77,52,30.15,30.05,4,1,12,0.26
2013-6-21,70.7,61.0,54.1,53.0,51.0,49.1,89,71,48,30.19,30.13,3,0,8,0.00
2013-6-22,81.5,66.5,47.8,57.2,50.9,45.9,96,62,31,30.14,29.84,3,1,7,0.00
2013-6-23,70.3,64.8,59.5,63.4,58.8,53.7,95,81,65,29.84,29.65,1,0,5,0.13
2013-6-24,69.7,61.3,55.8,59.9,54.2,50.6,95,78,53,29.73,29.64,4,1,12,0.11
2013-6-25,68.1,61.9,57.0,61.7,57.0,53.2,95,84,64,29.88,29.69,3,0,12,0.17
2013-6-26,73.7,65.0,58.0,61.8,57.7,55.3,96,78,55,30.06,29.87,3,0,6,0.24
2013-6-27,82.7,70.9,61.6,63.2,60.4,57.5,89,71,48,30.16,30.02,3,0,8,0.00
2013-6-28,94.2,76.3,59.1,67.6,62.7,58.0,96,67,34,30.16,30.00,4,0,8,0.00
2013-6-29,90.6,76.5,61.3,63.0,59.9,56.3,87,59,32,30.11,29.96,3,0,9,0.00
2013-6-30,99.5,80.5,60.4,69.0,64.2,58.1,93,61,35,29.99,29.81,2,0,8,0.00
2013-7-1,94.3,78.8,66.1,69.5,63.7,59.9,81,61,42,30.01,29.90,3,0,9,0.00
2013-7-2,90.7,75.4,61.5,66.3,60.3,53.3,87,62,33,30.08,30.01,2,0,12,0.00
2013-7-3,87.9,71.6,57.7,55.0,50.8,38.8,77,51,19,30.15,30.02,3,0,9,0.00
2013-7-4,78.6,64.3,52.1,55.0,51.8,48.9,89,66,43,30.16,30.04,3,0,9,0.00
2013-7-5,73.9,63.5,55.9,55.6,52.1,49.6,81,67,50,30.07,29.95,3,0,9,0.00
2013-7-6,77.9,63.2,53.6,58.3,53.7,49.7,87,72,48,29.99,29.85,3,0,8,0.00
2013-7-7,79.9,65.1,55.7,60.2,55.9,52.4,89,73,49,29.99,29.88,3,0,8,0.00
2013-7-8,83.4,66.3,54.6,60.0,54.9,50.8,88,69,41,30.10,29.99,3,0,8,0.00
2013-7-9,91.7,73.9,56.0,62.6,58.6,54.1,94,63,33,30.08,29.97,3,0,10,0.00
2013-7-10,83.7,68.4,55.9,58.0,53.2,46.3,83,60,39,30.08,29.94,2,0,10,0.00
2013-7-11,78.7,66.3,51.5,51.4,48.0,45.0,81,54,35,30.08,29.96,3,1,10,0.00
2013-7-12,76.1,62.2,47.9,53.9,49.0,44.0,88,64,42,30.12,30.01,3,0,10,0.00
2013-7-13,84.0,66.5,48.8,53.3,49.2,45.2,88,57,31,30.17,30.02,2,0,9,0.00
2013-7-14,91.0,70.6,50.9,56.2,50.2,42.9,93,54,20,30.10,29.95,3,0,7,0.00
2013-7-15,90.3,73.3,52.4,57.3,51.2,43.6,86,49,30,30.03,29.80,2,1,10,0.00
2013-7-16,90.2,72.2,56.7,58.4,53.6,48.3,79,54,24,29.98,29.77,4,1,10,0.00
2013-7-17,79.4,67.2,60.6,58.1,55.3,53.3,80,67,44,30.18,29.98,3,1,11,0.00
2013-7-18,84.3,67.8,53.4,60.1,55.0,47.5,93,67,30,30.22,30.07,4,0,9,0.00
2013-7-19,83.6,66.5,54.2,62.8,56.8,51.6,92,73,47,30.15,30.00,3,0,10,0.00
2013-7-20,80.5,66.8,56.7,61.5,57.1,53.5,92,73,51,30.09,29.94,3,0,7,0.00
2013-7-21,83.6,66.0,55.8,61.8,56.2,52.1,88,72,46,30.01,29.89,3,0,9,0.00
2013-7-22,84.7,66.8,57.1,60.7,56.3,53.3,90,72,37,30.06,29.95,3,0,9,0.00
2013-7-23,91.0,71.2,56.3,63.6,59.3,54.3,94,70,37,30.05,29.92,3,0,9,0.00
2013-7-24,93.3,73.8,55.8,61.6,57.3,52.3,91,60,27,30.05,29.95,3,0,8,0.00
2013-7-25,92.9,73.4,54.2,59.4,55.0,50.6,89,57,25,30.09,30.00,2,0,8,0.00
2013-7-26,92.5,72.1,54.2,57.8,52.3,46.9,87,54,21,30.16,30.05,2,0,10,0.00
2013-7-27,82.6,65.4,50.3,55.0,51.0,47.0,90,62,36,30.20,30.00,3,0,10,0.00
2013-7-28,75.8,60.6,49.7,55.2,51.1,46.9,91,72,47,30.08,29.98,3,0,10,0.00
2013-7-29,77.9,65.9,55.3,57.7,53.5,50.0,83,66,43,30.03,29.94,3,0,9,0.00
2013-7-30,83.6,67.1,53.4,65.2,55.6,50.8,92,70,40,30.15,30.03,4,0,7,0.00
2013-7-31,77.7,66.0,58.8,61.4,57.7,55.2,89,76,50,30.12,30.00,3,0,7,0.00
2013-8-1,65.8,61.4,57.1,57.3,55.3,53.5,92,81,70,30.12,30.06,3,0,4,0.00
2013-8-2,72.0,64.4,58.5,56.9,54.7,53.1,86,72,54,30.16,30.10,2,0,5,0.00
2013-8-3,83.7,68.5,58.9,60.6,57.9,55.4,90,71,44,30.12,29.98,3,0,7,0.00
2013-8-4,91.6,73.4,55.8,63.9,59.5,53.7,93,65,32,30.03,29.88,3,0,10,0.00
2013-8-5,91.7,74.2,58.4,64.1,59.5,53.9,91,63,30,30.01,29.89,3,0,10,0.00
2013-8-6,94.6,74.4,55.9,60.6,54.3,42.8,86,54,21,30.00,29.88,3,0,9,0.00
2013-8-7,88.7,72.8,57.5,58.4,55.8,51.9,88,59,32,30.03,29.94,3,1,13,0.00
2013-8-8,84.1,68.2,59.6,63.1,58.0,54.6,87,71,48,30.05,29.90,4,0,9,0.00
2013-8-9,81.3,68.6,58.2,63.4,58.0,53.7,85,70,51,29.95,29.85,2,0,8,0.01
2013-8-10,84.3,69.9,58.6,67.0,61.3,56.4,93,76,48,30.03,29.90,4,0,9,0.03
2013-8-11,76.0,66.2,58.9,61.0,58.1,55.8,91,76,58,30.08,29.99,2,0,8,0.00
2013-8-12,80.6,67.8,57.9,60.5,56.9,53.8,90,70,46,30.08,30.00,3,0,9,0.00
2013-8-13,88.5,69.6,52.6,58.7,53.8,43.8,92,62,24,30.11,29.92,3,0,9,0.00
2013-8-14,86.6,70.4,55.9,60.2,54.4,44.6,89,61,24,29.97,29.91,3,0,14,0.00
2013-8-15,81.5,72.9,65.7,67.9,62.7,58.4,87,71,55,29.98,29.93,2,0,6,0.00
2013-8-16,84.9,72.1,63.9,67.4,63.4,56.6,94,76,49,30.04,29.95,3,0,9,0.00
2013-8-17,85.9,71.0,56.5,60.7,57.1,53.3,89,64,40,30.09,30.01,3,0,9,0.00
2013-8-18,86.5,71.1,62.0,60.4,58.0,54.9,85,66,39,30.14,30.04,3,0,11,0.00
2013-8-19,87.3,70.1,55.9,60.4,57.0,53.2,94,67,34,30.12,30.04,3,0,13,0.00
2013-8-20,85.6,68.0,53.1,58.2,53.0,47.5,90,62,33,30.14,29.99,2,0,8,0.00
2013-8-21,92.5,71.9,51.5,58.8,53.9,48.4,90,57,31,30.01,29.83,2,0,7,0.00
2013-8-22,85.7,70.5,55.5,64.2,56.2,51.1,86,63,39,29.91,29.83,3,0,7,0.01
2013-8-23,78.2,67.1,60.8,62.3,57.9,55.6,87,73,48,29.95,29.87,3,1,9,0.00
2013-8-24,79.7,67.8,61.6,60.1,56.1,52.2,86,68,43,29.92,29.85,3,0,7,0.00
2013-8-25,71.8,62.9,54.7,61.8,57.0,51.8,93,82,65,29.94,29.90,1,0,5,0.16
2013-8-26,81.5,67.5,59.5,61.9,57.0,48.8,96,73,33,29.99,29.89,5,1,15,0.02
2013-8-27,86.0,70.8,61.2,63.5,59.0,55.6,90,68,44,29.98,29.79,3,0,8,0.00
2013-8-28,84.3,72.9,61.2,65.7,61.4,57.8,95,69,46,29.91,29.84,2,0,6,0.07
2013-8-29,79.0,70.2,64.9,68.3,64.1,61.5,97,82,59,30.08,29.84,6,1,15,0.24
2013-8-30,82.8,70.9,64.1,68.9,60.7,57.0,93,72,44,30.15,30.03,3,0,9,0.00
2013-8-31,91.5,72.0,54.3,62.3,58.2,52.9,96,66,33,30.06,29.81,3,0,7,0.00
2013-9-1,86.0,71.4,57.4,59.7,56.3,52.1,89,62,35,29.91,29.79,4,1,10,0.00
2013-9-2,82.9,73.0,63.0,62.1,57.9,54.0,86,61,42,29.93,29.87,9,1,9,0.04
2013-9-3,79.5,68.3,60.0,63.2,59.5,55.6,97,76,48,30.00,29.92,2,0,7,0.15
2013-9-4,72.7,66.4,59.7,61.9,59.6,57.1,92,79,66,30.06,29.98,1,0,6,0.00
2013-9-5,66.9,63.0,57.6,62.1,59.3,55.8,94,88,82,30.05,29.96,5,0,19,0.24
2013-9-6,70.7,62.6,57.6,61.6,58.4,55.9,96,87,66,30.14,30.03,5,2,12,1.13
2013-9-7,60.6,54.0,51.5,58.2,53.1,50.7,98,97,91,30.12,30.06,1,0,2,0.00
2013-9-8,86.7,74.1,55.4,64.3,61.2,54.3,97,67,41,30.08,29.98,3,0,7,0.00
2013-9-9,85.4,69.1,58.8,65.1,61.5,57.4,96,79,47,30.04,29.92,3,0,11,0.00
2013-9-10,94.5,73.6,59.5,66.8,60.4,52.3,96,69,30,29.93,29.77,3,0,11,0.00
2013-9-11,99.3,78.2,60.3,65.8,61.4,57.4,91,62,28,29.93,29.81,3,0,9,0.00
2013-9-12,86.6,70.5,58.0,65.2,61.0,55.9,95,74,46,30.01,29.89,3,0,7,0.00
2013-9-13,78.3,65.3,59.8,63.7,60.0,57.6,94,84,61,29.98,29.84,2,0,6,0.00
2013-9-14,81.2,68.6,61.3,64.7,61.5,59.5,95,80,53,29.87,29.70,2,0,6,0.00
2013-9-15,67.4,63.5,60.0,61.9,59.9,57.5,95,88,77,29.89,29.72,2,0,10,0.03
2013-9-16,71.3,62.6,59.5,60.3,57.6,55.2,95,84,61,29.99,29.89,4,1,10,0.06
2013-9-17,71.2,60.6,53.5,57.8,53.0,49.2,96,78,49,30.01,29.88,2,0,7,0.00
2013-9-18,72.1,59.2,50.6,54.4,50.4,46.8,91,75,45,30.10,30.01,2,0,7,0.00
2013-9-19,82.8,62.0,44.8,53.7,48.0,43.5,96,66,29,30.03,29.78,5,1,13,0.00
2013-9-20,74.3,60.6,48.9,57.3,51.5,46.5,93,74,49,29.79,29.66,4,1,12,0.00
2013-9-21,65.3,59.9,54.4,59.5,56.2,52.5,96,88,73,29.79,29.69,3,0,8,0.26
2013-9-22,62.0,57.1,55.0,57.3,53.8,49.6,96,89,64,29.87,29.68,8,2,20,0.27
2013-9-23,62.7,57.3,53.3,56.4,54.0,52.5,97,89,74,30.01,29.87,4,1,11,0.33
2013-9-24,61.0,53.4,49.6,54.1,51.4,48.4,98,93,69,30.00,29.87,3,0,10,0.54
2013-9-25,60.1,52.5,47.1,51.7,48.9,45.7,97,88,68,30.05,29.87,1,0,5,0.00
2013-9-26,66.6,54.1,47.1,51.6,48.5,46.0,97,83,54,30.18,30.05,2,0,6,0.00
2013-9-27,56.4,52.4,46.5,53.9,49.4,45.1,96,90,81,30.18,29.93,5,2,15,0.15
2013-9-28,64.7,58.3,52.0,58.4,55.6,50.1,96,91,78,29.93,29.50,8,4,25,1.47
2013-9-29,57.2,54.2,51.8,55.5,51.7,48.8,95,91,85,29.70,29.38,8,3,24,1.13
2013-9-30,58.9,53.1,50.5,54.7,49.6,47.2,94,88,78,30.02,29.61,6,2,20,0.56
2013-10-1,60.4,50.9,43.7,52.6,47.4,42.6,96,89,65,30.21,30.00,4,1,14,0.53
2013-10-2,53.8,47.2,42.3,49.0,44.8,41.5,97,91,78,30.21,30.10,3,0,10,0.29
2013-10-3,56.2,47.9,39.1,50.3,45.2,38.3,98,91,73,30.45,30.20,1,0,4,0.00
2013-10-4,67.2,49.3,35.8,52.9,44.8,35.0,98,86,54,30.47,30.35,2,0,8,0.00
2013-10-5,72.4,55.3,40.4,51.8,45.7,39.4,97,73,44,30.36,30.15,3,0,8,0.01
2013-10-6,76.6,56.9,39.3,53.3,44.5,38.3,97,68,29,30.15,29.97,5,0,12,0.00
2013-10-7,62.6,55.7,51.2,53.2,49.1,44.8,96,79,56,30.15,29.99,4,1,11,0.13
2013-10-8,56.5,50.0,40.0,52.5,47.5,39.0,96,91,75,30.16,29.99,2,0,8,0.22
2013-10-9,63.1,48.1,40.4,48.6,43.4,39.4,97,85,50,30.14,29.99,2,0,6,0.00
2013-10-10,60.8,51.5,42.6,50.6,46.7,41.3,96,85,59,30.10,29.98,2,0,7,0.00
2013-10-11,59.4,52.4,46.8,49.4,47.2,44.9,96,83,62,30.16,30.10,1,0,4,0.00
2013-10-12,56.0,49.1,40.4,49.6,46.0,39.4,96,89,73,30.19,30.08,1,0,4,0.02
2013-10-13,63.9,48.8,39.6,49.9,44.6,38.6,97,87,57,30.33,30.19,2,0,7,0.00
2013-10-14,68.5,50.6,37.6,50.5,43.7,36.6,97,80,46,30.39,30.30,3,0,6,0.00
2013-10-15,67.7,51.5,38.1,42.8,40.3,36.8,97,70,37,30.35,30.15,6,1,14,0.01
2013-10-16,66.5,49.8,37.5,47.8,42.4,36.2,96,78,45,30.18,30.12,2,0,6,0.00
2013-10-17,67.6,51.6,40.7,52.9,46.6,39.4,97,84,58,30.26,30.16,2,0,6,0.00
2013-10-18,70.7,54.7,40.3,48.4,42.4,39.0,97,68,36,30.20,30.09,6,1,14,0.00
2013-10-19,70.8,50.3,36.0,48.7,43.0,34.7,96,79,41,30.17,30.10,2,0,6,0.00
2013-10-20,64.4,48.4,38.3,52.0,45.3,37.3,97,90,62,30.18,30.07,2,0,6,0.00
2013-10-21,74.5,59.1,43.1,53.7,47.3,42.0,98,70,41,30.11,29.99,4,1,14,0.01
2013-10-22,74.6,57.7,43.1,53.0,47.6,41.8,95,72,41,30.06,29.95,4,0,11,0.00
2013-10-23,72.8,55.8,41.5,53.8,47.8,40.2,96,77,49,30.02,29.94,2,0,9,0.00
2013-10-24,70.2,53.2,42.7,59.2,48.7,41.5,97,86,54,30.11,29.99,1,0,4,0.00
2013-10-25,55.7,51.5,45.4,50.7,49.1,44.1,97,92,82,30.28,30.11,1,0,4,0.01
2013-10-26,58.8,51.3,44.4,50.0,48.0,43.1,96,89,71,30.30,30.18,1,0,4,0.00
2013-10-27,54.7,48.8,45.5,52.5,46.2,43.8,96,91,79,30.20,29.84,4,0,12,0.37
2013-10-28,58.8,47.8,35.2,44.9,35.0,28.6,97,67,33,29.95,29.83,8,2,23,0.01
2013-10-29,35.1,33.6,31.9,32.4,31.2,29.6,92,90,88,29.97,29.94,0,0,1,0.00
2013-10-30,58.2,53.4,46.1,46.1,41.0,37.8,90,64,48,30.21,30.17,2,0,7,0.01
2013-10-31,59.9,52.6,48.3,52.2,48.9,44.8,95,87,74,30.29,30.17,4,0,9,0.04
2013-11-1,60.7,52.3,45.7,52.0,49.3,44.6,97,90,70,30.30,29.92,2,0,9,0.15
2013-11-2,57.7,50.9,43.8,51.4,45.7,38.9,97,83,54,30.07,29.74,6,2,21,0.71
2013-11-3,51.2,45.4,42.2,44.9,41.9,39.6,95,88,71,30.17,30.06,4,1,12,0.07
2013-11-4,48.5,45.9,43.9,46.6,44.5,42.6,97,95,91,30.19,30.14,2,0,6,0.42
2013-11-5,53.3,49.5,45.4,51.6,48.3,44.3,98,96,92,30.26,30.11,4,1,11,0.11
2013-11-6,54.2,50.3,48.4,53.4,49.6,47.9,98,97,95,30.31,30.10,3,0,8,0.46
2013-11-7,56.2,50.6,47.7,54.3,47.7,43.5,99,90,75,30.14,29.89,7,3,22,0.48
2013-11-8,48.2,47.7,46.8,45.4,45.0,44.5,92,90,89,30.17,30.14,3,1,9,0.00
2013-11-16,46.4,46.2,45.9,42.4,42.0,41.7,87,85,84,29.87,29.83,5,2,11,0.10
2013-11-17,54.5,49.9,45.6,46.9,44.3,41.8,91,81,72,30.00,29.87,7,4,18,0.00
2013-11-18,55.1,52.0,50.1,49.8,46.6,43.3,96,82,72,29.99,29.73,6,2,8,0.26
2013-11-19,53.0,46.9,34.6,50.8,43.6,31.1,97,89,73,30.05,29.71,8,2,13,0.43
2013-11-20,47.0,34.6,26.6,37.1,25.0,19.1,97,70,38,30.44,30.05,4,0,8,0.01
2013-11-21,45.0,36.8,25.8,24.1,16.6,11.7,86,46,27,30.61,30.43,6,2,20,0.00
2013-11-22,43.5,39.1,35.2,20.2,16.5,11.3,44,39,35,30.60,30.43,11,7,27,0.00
2013-11-23,47.3,42.4,38.5,20.9,19.4,17.4,48,40,31,30.44,30.20,11,7,24,0.00
2013-11-24,52.4,41.7,32.9,26.8,22.6,19.1,74,47,32,30.30,30.18,10,4,24,0.00
2013-11-25,49.3,42.3,34.6,26.9,25.0,23.0,68,51,38,30.36,30.30,9,3,23,0.00
2013-11-26,51.8,43.4,33.1,30.1,27.9,25.5,78,55,41,30.30,30.09,5,2,14,0.00
2013-11-27,49.5,44.4,41.0,30.9,29.1,27.4,60,55,47,30.09,29.98,8,5,21,0.00
2013-11-28,52.9,44.0,35.7,34.1,31.3,29.3,83,61,48,30.23,30.04,9,4,22,0.00
2013-11-29,46.1,37.6,28.2,39.6,33.6,26.1,94,86,73,30.39,30.23,1,0,4,0.02
2013-11-30,51.0,45.6,40.7,46.3,41.8,39.1,95,87,72,30.41,30.23,1,0,5,0.10
2013-12-1,56.3,52.6,47.6,52.8,50.4,45.8,97,93,87,30.23,29.92,10,5,27,1.10
2013-12-2,50.6,41.4,34.2,49.8,38.8,32.7,97,91,69,30.07,29.92,4,0,9,0.20
2013-12-3,41.9,35.2,25.2,36.9,27.1,17.5,97,75,40,30.31,30.07,7,1,17,0.01
2013-12-4,36.7,28.2,19.5,21.0,17.4,14.4,94,66,42,30.37,30.30,5,2,16,0.00
2013-12-5,30.6,27.0,24.1,16.7,14.8,12.7,69,60,48,30.33,30.20,7,3,22,0.00
2013-12-6,27.3,25.0,22.2,18.5,14.0,8.1,85,63,50,30.20,30.01,20,7,26,0.00
2013-12-7,27.5,22.4,17.1,8.9,5.3,1.5,63,48,35,30.46,30.14,7,4,20,0.00
2013-12-8,29.1,19.0,11.1,12.0,9.2,5.2,83,66,44,30.63,30.46,3,0,9,0.00
2013-12-9,28.3,21.4,10.8,18.7,14.2,8.0,91,75,60,30.65,30.56,1,0,3,0.00
2013-12-10,36.4,29.2,23.2,27.5,23.6,18.7,94,80,67,30.57,30.43,1,0,3,0.00
2013-12-11,43.5,30.4,21.2,31.9,25.7,19.5,96,84,57,30.43,30.24,4,1,14,0.00
2013-12-12,39.4,33.7,22.8,35.8,31.0,21.3,96,90,68,30.25,30.15,1,0,3,0.12
2013-12-13,45.7,41.7,35.5,44.9,40.9,34.5,98,97,96,30.46,30.24,1,0,4,0.05
2013-12-14,41.7,39.1,36.3,41.2,38.4,35.6,98,97,96,30.49,30.39,1,0,3,0.00
2013-12-15,45.9,40.9,36.6,43.8,39.9,36.0,98,96,90,30.51,30.44,1,0,3,0.02
2013-12-16,42.1,41.1,39.6,41.6,40.6,39.1,98,98,97,30.50,30.27,1,0,4,0.00
2013-12-17,39.6,36.7,33.4,39.1,36.0,32.9,98,97,96,30.27,30.21,2,0,4,0.00
2013-12-18,42.3,37.2,29.1,40.5,36.2,28.6,98,96,92,30.21,30.07,1,0,3,0.10
2013-12-19,38.3,32.3,28.0,35.6,31.3,27.5,98,96,88,30.35,30.14,1,0,5,0.00
2013-12-20,45.7,37.3,31.0,44.7,36.0,30.5,98,95,93,30.26,29.89,7,2,20,0.12
2013-12-21,50.4,46.8,45.1,47.9,45.5,44.0,99,95,88,30.25,29.95,3,0,12,0.17
2013-12-22,52.3,47.9,45.1,49.0,46.3,44.3,98,94,88,30.37,30.24,4,1,13,0.07
2013-12-23,50.3,44.9,32.1,49.5,43.9,31.6,98,96,92,30.56,30.31,7,1,18,0.22
2013-12-24,38.2,34.5,30.1,37.7,34.1,29.6,99,98,98,30.64,30.51,1,0,4,0.00
2013-12-25,43.2,35.3,32.5,39.2,34.2,31.9,99,96,83,30.52,30.41,1,0,4,0.01
2013-12-26,45.7,34.2,29.1,38.6,32.7,28.6,99,94,75,30.43,30.26,1,0,4,0.00
2013-12-27,37.2,34.4,31.5,36.2,33.5,31.0,98,96,93,30.42,30.23,2,0,5,0.01
2013-12-28,46.1,39.5,35.1,41.9,37.2,34.1,97,92,79,30.53,30.42,1,0,3,0.00
2013-12-29,37.7,34.4,30.8,36.4,33.5,30.0,98,97,94,30.48,30.31,1,0,3,0.00
2013-12-30,40.5,37.5,33.2,38.9,36.3,32.4,98,96,91,30.32,30.20,2,0,5,0.00
2013-12-31,48.4,41.8,35.2,44.4,40.2,34.7,98,94,84,30.37,30.25,1,0,3,0.01
2014-1-1,46.3,40.0,34.8,42.8,39.0,34.0,99,96,86,30.39,30.27,1,0,4,0.01
2014-1-2,46.2,40.1,34.4,42.4,38.3,33.6,98,94,81,30.29,30.05,1,0,5,0.17